Content
SEND FEEDBACK

Daily
Averages
Monthly
Summary
United States of America

MERIZO, GUAM


Home > North America > United States > Guam
Elevation: 10 feet     Latitude: 13 14N     Longitude: 144 39E

WEATHER
 
SELECT A DAY
Number of Records: 350,330;   Date Range: 1/1/95 - 10/1/14
 
SHARE

PRINT THIS DATA

[ ← Previous Day ]
WEATHER ALMANAC - APRIL 3, 2013
[ Next Day → ]
[ °C ]   °F
Weather ElementAverageHighLow
Temperature79.1 °F83.7 °F (12:55 pm)75.7 °F (5:55 am)
Dewpoint71.2 °F73.4 °F (2:55 pm)67.3 °F (4:55 am)
Humidity76.7 %86 % (11:55 pm)68 % (9:55 am)
Barometer29.85 in29.89 in (7:55 am)29.78 in (5:11 pm)
Wind Speed11.1 mph17.3 mph (8:55 am)
Weather ElementAverage
Visibility9.9 mi
Wind DirectionENE (77 °)

Weather ElementTotal
Precipitation---
Cooling Degree Days14.7 (Base 65)
Growing Degree Days29.7 (Base 50)
Averaged from 40 records on April 3, 2013
WEATHER CONDITIONS BREAKOUT
WIND DIRECTION BREAKOUT
WEATHER BY HOUR - APRIL 3, 2013
[ °C ]   °F
Local TimeTemperatureDewpointHumidityBarometerVisibilityWind DirectionWind SpeedGust SpeedPrecipitationEventsConditions
12:47 AM77.0 °F69.8 °F78 %29.88 in10.0 miEast (90°)13.8 mphMostly Cloudy
12:49 AM77.0 °F69.8 °F78 %29.88 in10.0 miEast (90°)12.7 mphMostly Cloudy
12:55 AM77.9 °F69.8 °F76 %29.88 in10.0 miEast (100°)9.2 mphMostly Cloudy
1:25 AM77.0 °F69.8 °F78 %29.87 in10.0 miEast (80°)13.8 mphMostly Cloudy
1:26 AM77.0 °F69.8 °F78 %29.87 in10.0 miEast (80°)13.8 mphMostly Cloudy
1:43 AM77.0 °F69.8 °F78 %29.87 in10.0 miEast (90°)13.8 mphMostly Cloudy
1:45 AM77.0 °F69.8 °F78 %29.87 in10.0 miEast (80°)12.7 mphMostly Cloudy
1:49 AM77.0 °F69.8 °F78 %29.87 in10.0 miEast (90°)13.8 mphMostly Cloudy
1:55 AM77.4 °F68.7 °F75 %29.87 in10.0 miEast (90°)11.5 mphMostly Cloudy
2:55 AM76.6 °F67.8 °F74 %29.86 in10.0 miEast (90°)10.4 mphClear
3:55 AM76.8 °F68.4 °F75 %29.86 in10.0 miEast (100°)9.2 mphScattered Clouds
4:55 AM75.9 °F67.3 °F74 %29.86 in10.0 miEast (100°)9.2 mphClear
5:55 AM75.7 °F68.7 °F79 %29.87 in10.0 miEast (100°)8.1 mphClear
6:55 AM76.6 °F70.3 °F81 %29.88 in10.0 miEast (100°)6.9 mphClear
7:55 AM79.2 °F70.7 °F75 %29.89 in10.0 miEast (100°)12.7 mphScattered Clouds
8:55 AM81.9 °F71.4 °F70 %29.89 in10.0 miEast (80°)17.3 mphClear
9:55 AM82.8 °F71.4 °F68 %29.88 in10.0 miEast (90°)11.5 mphClear
10:55 AM82.9 °F71.8 °F69 %29.88 in10.0 miEast (90°)15.0 mphPartly Cloudy
11:55 AM83.5 °F73.0 °F71 %29.86 in10.0 miENE (70°)11.5 mphPartly Cloudy
12:55 PM83.7 °F72.9 °F70 %29.84 in10.0 miEast (90°)11.5 mphScattered Clouds
1:55 PM83.3 °F73.0 °F71 %29.81 in10.0 miENE (70°)9.2 mphPartly Cloudy
2:55 PM82.9 °F73.4 °F73 %29.80 in10.0 miEast (90°)9.2 mphScattered Clouds
3:55 PM82.6 °F73.2 °F73 %29.79 in10.0 miENE (70°)11.5 mphScattered Clouds
4:55 PM81.7 °F73.0 °F75 %29.79 in10.0 miENE (60°)11.5 mphMostly Cloudy
5:00 PM80.6 °F71.6 °F74 %29.79 in10.0 miENE (60°)10.4 mphScattered Clouds
5:11 PM82.4 °F73.4 °F74 %29.78 in10.0 miENE (70°)8.1 mphMostly Cloudy
5:16 PM82.4 °F71.6 °F70 %29.78 in10.0 miENE (60°)9.2 mphScattered Clouds
6:46 PM78.8 °F71.6 °F78 %29.80 in10.0 miENE (60°)10.4 mphScattered Clouds
6:49 PM78.8 °F71.6 °F78 %29.80 in10.0 miENE (70°)11.5 mphMostly Cloudy
6:51 PM78.8 °F71.6 °F78 %29.80 in10.0 miENE (70°)11.5 mphScattered Clouds
6:55 PM78.1 °F71.8 °F81 %29.80 in10.0 miENE (60°)10.4 mphScattered Clouds
7:55 PM77.9 °F72.0 °F82 %29.82 in10.0 miENE (60°)10.4 mphPartly Cloudy
8:55 PM77.7 °F72.0 °F82 %29.84 in10.0 miENE (60°)10.4 mphScattered Clouds
9:20 PM77.0 °F71.6 °F83 %29.85 in10.0 miENE (60°)10.4 mphScattered Clouds
9:25 PM78.8 °F71.6 °F78 %29.85 in10.0 miENE (60°)11.5 mphMostly Cloudy
9:38 PM78.8 °F71.6 °F78 %29.86 in10.0 miENE (60°)11.5 mphScattered Clouds
9:47 PM78.8 °F73.4 °F83 %29.86 in10.0 miENE (60°)9.2 mphMostly Cloudy
9:55 PM77.9 °F72.1 °F82 %29.86 in10.0 miENE (60°)9.2 mphMostly Cloudy
10:55 PM78.1 °F73.4 °F85 %29.87 in10.0 miENE (60°)11.5 mphMostly Cloudy
11:55 PM77.2 °F72.9 °F86 %29.86 in7.0 miENE (60°)9.2 mphPartly Cloudy
Hourly data recorded from PGUA, located miles away from Merizo, Guam







STORIES FROM OUR PARTNERS